Regional Weather Roundup
Issued by NWS

Home | Current Version | Previous Version | Graphics & Text | Print | Product List | Glossary On
Versions: 1 2 3 4 5 6 7 8 9 10 11 12 13 14 15 16 17 18 19 20 21 22 23 24 25 26 27 28 29 30 31 32 33 34 35 36 37 38 39 40 41 42 43 44 45 46 47 48 49 50
000
ASUS44 KMEG 171010
RWRTN
TENNESSEE HOURLY STATE WEATHER ROUNDUP
NATIONAL WEATHER SERVICE MEMPHIS TN
400 AM CST SUN DEC 17 2017

TNZ002-004-019-021-049-052-054-088>092-171100-
WEST TENNESSEE

CITY           SKY/WX    TMP DP  RH WIND       PRES   REMARKS
MEMPHIS INTL   RAIN      42  40  92 N5        30.15R FOG
NWS MEMPHIS      N/A     41 N/A N/A MISG        N/A
JACKSON        LGT RAIN  43  37  79 CALM      30.16F
DYERSBURG      LGT RAIN  43  37  79 S3        30.17S
SOMERVILLE     CLOUDY    43  37  81 CALM      30.12F HAZE
COVINGTON      CLOUDY    41  39  93 CALM      30.16S
UNION CITY     CLOUDY    43  34  70 S5        30.14F
BOLIVAR        CLOUDY    45  32  61 CALM      30.15S
PARIS          CLOUDY    43  30  61 S6        30.15R
HUNTINGDON     CLOUDY    43  34  70 CALM      30.15F
LEXINGTON      CLOUDY    43  32  65 CALM      30.17R
SELMER         CLOUDY    43  30  61 CALM      30.15R
SAVANNAH       CLOUDY    43  32  65 CALM      30.16R
$$

TNZ008-025-027-028-033-062-065-066-171100-
NORTH MIDDLE TENNESSEE

CITY           SKY/WX    TMP DP  RH WIND       PRES   REMARKS
NASHVILLE      CLOUDY    42  29  59 E6        30.16F
PORTLAND         N/A     41  30  65 SE6       30.16F
CLARKSVILLE    CLOUDY    41  30  65 SE5       30.15F
SMYRNA         CLOUDY    41  30  65 CALM      30.17F
COOKEVILLE     CLOUDY    36  32  87 CALM      30.17F
GALLATIN       CLOUDY    41  32  70 NE6       30.17F
CROSSVILLE     CLOUDY    35  26  69 CALM      30.19F
$$

TNZ061-075-076-078-094-096-097-171100-
SOUTH MIDDLE TENNESSEE

CITY           SKY/WX    TMP DP  RH WIND       PRES   REMARKS
FAYETTEVILLE   CLOUDY    41  28  60 E7        30.12F
TULLAHOMA      PTCLDY    39  28  65 SE3       30.13F
WINCHESTER     PTCLDY    37  28  70 SE8       30.15F WCI  31
MCMINNVILLE    MOCLDY    34  30  86 CALM      30.16F
COLUMBIA       CLOUDY    41  32  70 CALM      30.14S
SHELBYVILLE    CLOUDY    41  30  65 CALM      30.14F
$$

TNZ017-018-042-046-047-171100-
NORTHEAST TENNESSEE

CITY           SKY/WX    TMP DP  RH WIND       PRES   REMARKS
TRI CITIES     CLOUDY    27  25  92 CALM      30.27S
ELIZABETHTON   CLEAR     28  27  93 CALM      30.26S
$$

TNZ012-013-036-069-073-074-171100-
CENTRAL EAST TENNESSEE

CITY           SKY/WX    TMP DP  RH WIND       PRES   REMARKS
KNOXVILLE      MOCLDY    29  28  96 E3        30.24F
OAK RIDGE      CLOUDY    32  30  92 CALM      30.26F
DOWNTOWN KNOXV   N/A     30  30 100 CALM      30.27S
GATLINBURG     CLEAR     27  25  93 CALM      30.25F
MORRISTOWN     CLEAR     32  28  86 E3        30.24F
JACKSBORO      CLEAR     30  30 100 CALM      30.29R
$$

TNZ083-085-099-171100-
SOUTHEAST TENNESSEE

CITY           SKY/WX    TMP DP  RH WIND       PRES   REMARKS
CHATTANOOGA    CLOUDY    30  27  88 CALM      30.22F
DAYTON         SUNNY     28  28 100 CALM      30.23F
$$

SKY/WX REPORTED AS FAIR MEANS FEW OR NO CLOUDS BELOW
12 THOUSAND FEET.




USA.gov is the U.S. government's official web portal to all federal, state and local government web resources and services.